Location: Chimay
(50.0486°N, 4.3171°E)
Time: 15:00:07
(UTC+00:00)

GP-B - Pass Details

Date: 08 August 2020
Orbit: 632 x 635 km, 89.8° (Epoch: 18 September)

Event Time Altitude Azimuth Distance (km) Brightness Sun altitude
Rises 21:20:23 0° 357° (N) 2,946 7.5 -16.5°
Reaches altitude 10° 21:22:40 10° 352° (N) 2,033 6.7 -16.8°
Maximum altitude 21:26:58 50° 278° (W) 813 3.9 -17.2°
Enters shadow 21:30:43 13° 205° (SSW) 1,803 5.1 -17.5°
